FW1404 Weather Reports


Display with metric or nautical units.
time (UTC)temp
F
wind
direction
speed
MPH
gust
MPH
rain 1hr
in
rain 24hr
in
rain mn
in
humidity
%
barometer
mb
20260502130545 79 204 3.0 9.0 0.00 0.00 0.00 30 1019.7
20260502123806 79 201 4.0 13.0 0.00 0.00 0.00 30 1020.1
20260502123305 78 221 5.0 12.0 0.00 0.00 0.00 31 1020.1
20260502122803 79 206 6.0 12.0 0.00 0.00 0.00 30 1020.2
20260502122306 79 182 5.0 7.0 0.00 0.00 0.00 31 1020.3
20260502121804 78 203 5.0 9.0 0.00 0.00 0.00 31 1020.3
20260502121556 78 135 5.0 12.0 0.00 0.00 0.00 30 1020.3
20260502120805 78 194 6.0 12.0 0.00 0.00 0.00 30 1020.4
20260502120549 78 160 3.0 9.0 0.00 0.00 0.00 30 1020.5
20260502115804 78 198 4.0 11.0 0.00 0.00 0.00 31 1020.6
20260502115306 78 193 8.0 11.0 0.00 0.00 0.00 30 1020.6
20260502114804 78 126 6.0 10.0 0.00 0.00 0.00 30 1020.7
20260502114305 79 208 5.0 12.0 0.00 0.00 0.00 30 1020.7
20260502113805 79 197 7.0 12.0 0.00 0.00 0.00 31 1020.8
20260502113305 78 237 2.0 5.0 0.00 0.00 0.00 31 1020.9
20260502112805 78 165 2.0 11.0 0.00 0.00 0.00 31 1021.0
20260502112305 78 146 5.0 11.0 0.00 0.00 0.00 31 1021.0
20260502112051 78 143 4.0 10.0 0.00 0.00 0.00 32 1021.1
20260502111303 78 225 3.0 13.0 0.00 0.00 0.00 31 1021.2
20260502110802 78 201 10.0 13.0 0.00 0.00 0.00 31 1021.3
20260502110303 78 213 5.0 11.0 0.00 0.00 0.00 31 1021.3
20260502105803 77 235 5.0 11.0 0.00 0.00 0.00 31 1021.4
20260502105305 78 224 4.0 9.0 0.00 0.00 0.00 32 1021.3
20260502104804 77 159 3.0 10.0 0.00 0.00 0.00 32 1021.5
20260502104303 77 148 5.0 13.0 0.00 0.00 0.00 32 1021.6
20260502103800 78 241 7.0 14.0 0.00 0.00 0.00 31 1021.6
20260502103302 78 201 8.0 14.0 0.00 0.00 0.00 33 1021.6
20260502102800 77 193 2.0 6.0 0.00 0.00 0.00 35 1021.7
20260502102301 77 191 5.0 9.0 0.00 0.00 0.00 34 1021.8
20260502101802 76 215 3.0 16.0 0.00 0.00 0.00 32 1021.8
20260502101301 77 167 10.0 16.0 0.00 0.00 0.00 32 1022.0
20260502100802 77 135 4.0 10.0 0.00 0.00 0.00 33 1022.0
20260502100302 77 320 3.0 6.0 0.00 0.00 0.00 33 1021.9
20260502091302 76 207 6.0 11.0 0.00 0.00 0.00 35 1022.7
20260502090800 75 163 2.0 9.0 0.00 0.00 0.00 35 1022.6
20260502090540 74 194 6.0 9.0 0.00 0.00 0.00 33 1022.7
20260502071234 69 151 2.0 5.0 0.00 0.00 0.00 49 1023.3
20260502070733 69 163 3.0 7.0 0.00 0.00 0.00 50 1023.4
20260502070234 68 166 5.0 7.0 0.00 0.00 0.00 52 1023.3
20260502065816 67 156 2.0 4.0 0.00 0.00 0.00 53 1023.4
20260502065800 68 156 1.0 4.0 0.00 0.00 0.00 51 1023.3
20260502064734 66 152 3.0 4.0 0.00 0.00 0.00 54 1023.3
20260502064234 65 155 2.0 5.0 0.00 0.00 0.00 53 1023.4
20260502063732 65 151 3.0 5.0 0.00 0.00 0.00 54 1023.5
20260502063232 64 159 3.0 5.0 0.00 0.00 0.00 56 1023.5
20260502062734 64 152 4.0 5.0 0.00 0.00 0.00 56 1023.4
20260502062234 63 155 3.0 4.0 0.00 0.00 0.00 57 1023.5
20260502061733 63 155 3.0 4.0 0.00 0.00 0.00 57 1023.6
20260502061232 62 30 3.0 3.0 0.00 0.00 0.00 63 1023.5
20260502060733 61 10 1.0 1.0 0.00 0.00 0.00 63 1023.4
20260502060232 59 12 0.0 0.0 0.00 0.00 0.00 65 1023.4
20260502055732 59 12 0.0 0.0 0.00 0.00 0.00 65 1023.5
20260502055232 58 12 0.0 0.0 0.00 0.00 0.00 68 1023.5
20260502054826 54 12 0.0 1.0 0.00 0.00 0.00 73 1023.4
20260502054804 56 12 0.0 0.0 0.00 0.00 0.00 69 1023.5
20260502053733 52 12 0.0 1.0 0.00 0.00 0.00 77 1023.5
20260502053232 50 12 0.0 0.0 0.00 0.00 0.00 78 1023.5
20260502052735 49 12 0.0 0.0 0.00 0.00 0.00 81 1023.5
20260502052232 47 12 0.0 1.0 0.00 0.00 0.00 81 1023.4
20260502051731 46 12 0.0 1.0 0.00 0.00 0.00 82 1023.4
20260502051232 45 10 0.0 0.0 0.00 0.00 0.00 82 1023.4
20260502050731 44 10 0.0 0.0 0.00 0.00 0.00 82 1023.4
20260502050233 44 10 0.0 0.0 0.00 0.00 0.00 82 1023.4
20260502050049 43 10 0.0 0.0 0.00 0.00 0.00 82 1023.5
20260502050045 43 10 0.0 0.0 0.00 0.00 0.00 82 1023.5
20260502045012 42 10 0.0 0.0 0.00 0.00 0.00 81 1023.4
20260502044232 42 10 0.0 0.0 0.00 0.00 0.00 81 1023.4
20260502043706 42 10 0.0 0.0 0.00 0.00 0.00 81 1023.5
20260502043205 42 10 0.0 0.0 0.00 0.00 0.00 81 1023.4
20260502042704 41 10 0.0 0.0 0.00 0.00 0.00 81 1023.4
20260502042204 41 10 0.0 0.0 0.00 0.00 0.00 80 1023.3
20260502041703 41 10 0.0 0.0 0.00 0.00 0.00 80 1023.3
20260502041203 41 10 0.0 0.0 0.00 0.00 0.00 80 1023.3
20260502040946 41 10 0.0 0.0 0.00 0.00 0.00 80 1023.3
20260502040209 41 10 0.0 0.0 0.00 0.00 0.00 80 1023.3
20260502035703 41 10 0.0 0.0 0.00 0.00 0.00 80 1023.3
20260502035204 41 10 0.0 0.0 0.00 0.00 0.00 80 1023.3
20260502034703 41 10 0.0 0.0 0.00 0.00 0.00 80 1023.3
20260502034204 41 10 0.0 0.0 0.00 0.00 0.00 79 1023.4
20260502033949 41 10 0.0 0.0 0.00 0.00 0.00 79 1023.3
20260502033203 41 10 0.0 0.0 0.00 0.00 0.00 80 1023.3
20260502032704 42 10 0.0 0.0 0.00 0.00 0.00 80 1023.4
20260502032204 42 10 0.0 0.0 0.00 0.00 0.00 79 1023.4
20260502031710 42 10 0.0 0.0 0.00 0.00 0.00 79 1023.5
20260502031203 42 10 0.0 0.0 0.00 0.00 0.00 79 1023.5
20260502030704 42 10 0.0 0.0 0.00 0.00 0.00 79 1023.5
20260502030204 42 10 0.0 0.0 0.00 0.00 0.00 79 1023.6
20260502025705 42 10 0.0 0.0 0.00 0.00 0.00 79 1023.5
20260502025205 42 10 0.0 0.0 0.00 0.00 0.00 78 1023.5
20260502024705 42 10 0.0 0.0 0.00 0.00 0.00 78 1023.6
20260502024205 42 10 0.0 0.0 0.00 0.00 0.00 78 1023.6
20260502023705 42 10 0.0 0.0 0.00 0.00 0.00 78 1023.6
20260502023449 42 10 0.0 0.0 0.00 0.00 0.00 78 1023.6
20260502022654 43 10 0.0 0.0 0.00 0.00 0.00 78 1023.7
20260502022430 43 10 0.0 0.0 0.00 0.00 0.00 78 1023.7
20260502021652 43 10 0.0 0.0 0.00 0.00 0.00 78 1023.7
20260502021152 43 10 0.0 0.0 0.00 0.00 0.00 78 1023.7
20260502020654 43 10 0.0 0.0 0.00 0.00 0.00 78 1023.7
20260502020152 43 10 0.0 0.0 0.00 0.00 0.00 78 1023.8
20260502015652 43 10 0.0 0.0 0.00 0.00 0.00 78 1023.8
20260502015152 43 10 0.0 0.0 0.00 0.00 0.00 78 1023.7
20260502014651 44 10 0.0 1.0 0.00 0.00 0.00 77 1023.8
20260502014150 44 10 0.0 1.0 0.00 0.00 0.00 77 1023.8
20260502013652 44 10 0.0 2.0 0.00 0.00 0.00 77 1023.8
20260502013428 44 10 1.0 2.0 0.00 0.00 0.00 77 1023.9
20260502012650 44 10 0.0 1.0 0.00 0.00 0.00 77 1023.9
20260502012150 44 10 0.0 1.0 0.00 0.00 0.00 77 1023.9
20260502011651 44 10 1.0 1.0 0.00 0.00 0.00 77 1023.9
20260502011437 44 10 0.0 1.0 0.00 0.00 0.00 77 1023.9
20260502010650 44 10 0.0 0.0 0.00 0.00 0.00 77 1023.9
20260502010151 45 10 0.0 0.0 0.00 0.00 0.00 77 1023.9
20260502005933 45 10 0.0 0.0 0.00 0.00 0.00 76 1023.9
20260502005151 45 10 0.0 0.0 0.00 0.00 0.00 76 1024.2
20260502004651 45 10 0.0 0.0 0.00 0.00 0.00 76 1024.0
20260502004150 45 10 0.0 0.0 0.00 0.00 0.00 76 1024.0
20260502003649 45 10 0.0 1.0 0.00 0.00 0.00 76 1024.0
20260502003148 45 10 1.0 1.0 0.00 0.00 0.00 76 1024.0
20260502002930 45 10 1.0 1.0 0.00 0.00 0.00 76 1024.0
20260502002149 46 10 0.0 0.0 0.00 0.00 0.00 76 1024.0
20260502001649 46 10 0.0 0.0 0.00 0.00 0.00 76 1024.2
20260502001148 46 10 0.0 0.0 0.00 0.00 0.00 76 1024.0
20260502000648 46 10 0.0 0.0 0.00 0.00 0.00 75 1024.2
20260502000149 46 10 0.0 1.0 0.00 0.00 0.00 76 1024.0
20260501235648 46 10 0.0 1.0 0.00 0.00 0.00 75 1024.2
20260501235149 46 10 1.0 1.0 0.00 0.00 0.00 75 1024.2
20260501234649 46 10 0.0 1.0 0.00 0.00 0.00 75 1024.2
20260501234422 47 10 1.0 2.0 0.00 0.00 0.00 75 1024.2
20260501233929 47 10 0.0 2.0 0.00 0.00 0.00 75 1024.3
20260501233148 47 10 1.0 1.0 0.00 0.00 0.00 75 1024.3
20260501232933 47 10 0.0 0.0 0.00 0.00 0.00 75 1024.3
20260501232150 47 10 0.0 1.0 0.00 0.00 0.00 75 1024.4
20260501231649 47 10 0.0 2.0 0.00 0.00 0.00 74 1024.4
20260501231422 47 10 1.0 2.0 0.00 0.00 0.00 74 1024.4
20260501230930 48 10 0.0 0.0 0.00 0.00 0.00 74 1024.5
20260501230148 48 10 0.0 0.0 0.00 0.00 0.00 73 1024.5
20260501225648 48 10 0.0 1.0 0.00 0.00 0.00 73 1024.4
20260501225148 48 10 0.0 1.0 0.00 0.00 0.00 74 1024.5
20260501224638 48 10 0.0 2.0 0.00 0.00 0.00 74 1024.5
20260501224139 49 10 2.0 3.0 0.00 0.00 0.00 74 1024.5
20260501223920 49 10 2.0 3.0 0.00 0.00 0.00 74 1024.5
20260501223417 49 10 1.0 1.0 0.00 0.00 0.00 74 1024.5
20260501222920 49 10 1.0 1.0 0.00 0.00 0.00 73 1024.4
20260501222133 49 10 0.0 0.0 0.00 0.00 0.00 73 1024.5
20260501221634 49 10 0.0 0.0 0.00 0.00 0.00 73 1024.5
20260501221131 49 10 0.0 0.0 0.00 0.00 0.00 73 1024.4
20260501220630 49 10 0.0 0.0 0.00 0.00 0.00 72 1024.4
20260501220108 50 10 0.0 0.0 0.00 0.00 0.00 72 1024.5
20260501215608 50 10 0.0 0.0 0.00 0.00 0.00 72 1024.5
20260501215105 50 10 0.0 0.0 0.00 0.00 0.00 72 1024.5
20260501214607 50 10 0.0 0.0 0.00 0.00 0.00 71 1024.5
20260501214105 51 10 0.0 0.0 0.00 0.00 0.00 70 1024.5
20260501213606 51 10 0.0 1.0 0.00 0.00 0.00 70 1024.5
20260501213353 51 10 0.0 1.0 0.00 0.00 0.00 70 1024.4
20260501212554 51 10 0.0 0.0 0.00 0.00 0.00 69 1024.5
20260501212049 51 10 0.0 1.0 0.00 0.00 0.00 69 1024.5
20260501211549 0 10 1.0 1.0 0.00 0.00 0.00 1024.5
20260501211005 52 10 1.0 1.0 0.00 0.00 0.00 68 1024.5
20260501210503 52 10 1.0 1.0 0.00 0.00 0.00 68 1024.5
20260501210004 52 10 0.0 0.0 0.00 0.00 0.00 67 1024.4
20260501205503 53 10 0.0 1.0 0.00 0.00 0.00 66 1024.5
20260501205004 53 10 0.0 1.0 0.00 0.00 0.00 66 1024.4
20260501204749 53 10 0.0 0.0 0.00 0.00 0.00 66 1024.4
20260501204002 53 10 0.0 0.0 0.00 0.00 0.00 65 1024.3
20260501203504 54 10 0.0 0.0 0.00 0.00 0.00 65 1024.4
20260501203003 54 10 0.0 1.0 0.00 0.00 0.00 65 1024.6
20260501202745 54 10 0.0 2.0 0.00 0.00 0.00 64 1024.5
20260501202003 54 10 1.0 2.0 0.00 0.00 0.00 63 1024.6
20260501201505 55 10 1.0 2.0 0.00 0.00 0.00 63 1024.6
20260501201250 55 10 2.0 2.0 0.00 0.00 0.00 63 1024.5
20260501200505 55 10 1.0 2.0 0.00 0.00 0.00 62 1024.6
20260501200005 56 10 1.0 2.0 0.00 0.00 0.00 61 1024.6
20260501195505 56 10 0.0 1.0 0.00 0.00 0.00 61 1024.6
20260501195004 56 10 1.0 1.0 0.00 0.00 0.00 60 1024.6
20260501194503 57 10 0.0 1.0 0.00 0.00 0.00 60 1024.6
20260501194002 57 10 1.0 2.0 0.00 0.00 0.00 59 1024.6
20260501193502 58 10 2.0 2.0 0.00 0.00 0.00 59 1024.7
20260501193247 58 10 1.0 2.0 0.00 0.00 0.00 58 1024.6
20260501192502 58 10 1.0 2.0 0.00 0.00 0.00 57 1024.6
20260501192243 58 10 1.0 3.0 0.00 0.00 0.00 56 1024.7
20260501191501 59 10 2.0 3.0 0.00 0.00 0.00 55 1024.6
20260501191001 59 40 2.0 2.0 0.00 0.00 0.00 55 1024.6
20260501190502 60 40 0.0 0.0 0.00 0.00 0.00 52 1024.5
20260501190238 60 40 0.0 0.0 0.00 0.00 0.00 52 1024.5
20260501185502 61 40 0.0 0.0 0.00 0.00 0.00 51 1024.4
20260501185001 62 40 0.0 0.0 0.00 0.00 0.00 50 1024.5
20260501184501 62 40 0.0 0.0 0.00 0.00 0.00 49 1024.5
20260501183959 63 40 0.0 0.0 0.00 0.00 0.00 48 1024.4
20260501183459 64 40 0.0 1.0 0.00 0.00 0.00 47 1024.5
20260501183242 65 39 0.0 2.0 0.00 0.00 0.00 45 1024.4
20260501182500 66 40 0.0 2.0 0.00 0.00 0.00 41 1024.4
20260501182000 67 39 1.0 2.0 0.00 0.00 0.00 41 1024.3
20260501181459 67 39 1.0 2.0 0.00 0.00 0.00 41 1024.4
20260501181002 68 40 2.0 2.0 0.00 0.00 0.00 38 1024.3
20260501180745 69 40 1.0 3.0 0.00 0.00 0.00 38 1024.0
20260501180000 69 40 2.0 3.0 0.00 0.00 0.00 37 1024.0
20260501175500 69 40 1.0 4.0 0.00 0.00 0.00 36 1024.2
20260501175000 69 40 2.0 4.0 0.00 0.00 0.00 36 1024.0
20260501174500 70 40 2.0 5.0 0.00 0.00 0.00 36 1024.0
20260501173958 70 39 3.0 5.0 0.00 0.00 0.00 36 1024.0
20260501173459 70 39 3.0 5.0 0.00 0.00 0.00 35 1024.0
20260501172959 70 46 3.0 5.0 0.00 0.00 0.00 35 1024.0
20260501172751 71 33 3.0 5.0 0.00 0.00 0.00 35 1024.0
20260501171959 71 33 2.0 5.0 0.00 0.00 0.00 34 1024.0
20260501171459 71 33 3.0 5.0 0.00 0.00 0.00 35 1023.9
20260501170958 71 37 4.0 5.0 0.00 0.00 0.00 35 1024.0
20260501170458 71 40 2.0 6.0 0.00 0.00 0.00 35 1024.0
20260501170341 72 20 5.0 10.0 0.00 0.00 0.00 34 1023.9
20260501170336 71 12 7.0 10.0 0.00 0.00 0.00 34 1024.2
20260501170328 71 6 4.0 7.0 0.00 0.00 0.00 34 1024.0
20260501164458 72 10 3.0 5.0 0.00 0.00 0.00 34 1024.0
20260501163956 72 68 3.0 7.0 0.00 0.00 0.00 34 1024.0
20260501163453 72 57 5.0 7.0 0.00 0.00 0.00 35 1024.2
20260501162951 72 19 5.0 6.0 0.00 0.00 0.00 35 1024.2
20260501162437 72 13 2.0 10.0 0.00 0.00 0.00 35 1024.2
20260501161935 72 40 3.0 10.0 0.00 0.00 0.00 35 1024.2
20260501161433 72 36 6.0 9.0 0.00 0.00 0.00 36 1024.3
20260501160934 72 77 5.0 6.0 0.00 0.00 0.00 36 1024.3
20260501160713 72 53 2.0 7.0 0.00 0.00 0.00 36 1024.3
20260501155933 72 2 6.0 7.0 0.00 0.00 0.00 35 1024.4
20260501155434 72 6 4.0 9.0 0.00 0.00 0.00 35 1024.5
20260501155137 72 8 7.0 10.0 0.00 0.00 0.00 35 1024.6
20260501154406 72 64 3.0 10.0 0.00 0.00 0.00 35 1024.5
20260501153905 72 359 4.0 9.0 0.00 0.00 0.00 35 1024.6
20260501153410 72 12 5.0 10.0 0.00 0.00 0.00 35 1024.5
20260501152905 72 19 6.0 10.0 0.00 0.00 0.00 35 1024.4
20260501152406 72 307 4.0 9.0 0.00 0.00 0.00 35 1024.6
20260501151905 72 300 6.0 9.0 0.00 0.00 0.00 35 1024.7
20260501151405 72 3 4.0 12.0 0.00 0.00 0.00 34 1024.7
20260501151153 72 352 5.0 12.0 0.00 0.00 0.00 34 1024.7
20260501150408 73 54 6.0 11.0 0.00 0.00 0.00 35 1024.8
20260501145905 73 26 7.0 13.0 0.00 0.00 0.00 35 1024.9
20260501145405 73 356 8.0 13.0 0.00 0.00 0.00 35 1024.8
20260501144904 73 19 4.0 10.0 0.00 0.00 0.00 36 1024.9
20260501144405 73 339 6.0 9.0 0.00 0.00 0.00 34 1024.9
20260501143903 73 60 3.0 11.0 0.00 0.00 0.00 35 1024.8
20260501143742 74 5 5.0 10.0 0.00 0.00 0.00 33 1025.0
20260501143738 74 358 3.0 11.0 0.00 0.00 0.00 35 1024.9
20260501142405 74 32 4.0 11.0 0.00 0.00 0.00 33 1025.0
20260501141905 74 20 9.0 11.0 0.00 0.00 0.00 34 1025.1
20260501141646 74 25 5.0 7.0 0.00 0.00 0.00 34 1025.0
20260501140903 74 92 2.0 12.0 0.00 0.00 0.00 35 1025.1
20260501140416 74 355 4.0 15.0 0.00 0.00 0.00 35 1025.2
20260501140354 74 354 9.0 15.0 0.00 0.00 0.00 34 1025.2
20260501135404 74 344 7.0 11.0 0.00 0.00 0.00 34 1025.3
20260501134952 74 98 6.0 12.0 0.00 0.00 0.00 34 1025.1
20260501134934 74 6 7.0 12.0 0.00 0.00 0.00 33 1025.3
20260501134200 74 1 6.0 16.0 0.00 0.00 0.00 33 1025.4
20260501134153 74 334 3.0 12.0 0.00 0.00 0.00 34 1025.3
20260501133421 74 60 8.0 16.0 0.00 0.00 0.00 33 1025.5